{"data":{"norad_id":68871,"intl_designator":"2026-095H","name":"KUIPER-00448","alt_names":[],"object_type":"PAYLOAD","status":"ACTIVE","operator":null,"country":"US","launch_date":"2026-04-28","launch_site_code":"AFETR","launch_vehicle":null,"mission":null,"orbit_class":"UNKNOWN","rcs_meters":null,"size_class":null,"mass_kg":null,"dimensions":null,"purposes":[],"wikipedia_slug":null,"has_3d_model":false,"image_url":null,"decayed_at":null,"tle_current":{"epoch":"2026-05-25T00:02:29.943744Z","epoch_age_seconds":71562,"freshness":"FRESH","line1":"1 68871U 26095H   26145.00173546  .00025676  00000+0  68029-3 0  9999","line2":"2 68871  51.8844 354.3990 0003244 197.9885 162.0987 15.38176130  4164","mean_motion":15.3817613,"eccentricity":0.0003244,"inclination_deg":51.8844,"raan_deg":354.399,"arg_perigee_deg":197.9885,"mean_anomaly_deg":162.0987,"bstar":0.00068029,"rev_number":416,"period_min":93.617367472735,"perigee_km":449.28721795082,"apogee_km":453.71828822262,"semimajor_km":6829.6397530867,"source":"CELESTRAK","updated_at":"2026-05-25T13:38:08.646763Z"}}}